FW9691 Weather Reports


Display with metric or nautical units.
time (UTC)temp
F
wind
direction
speed
MPH
gust
MPH
rain 1hr
in
rain 24hr
in
rain mn
in
humidity
%
barometer
mb
20260506034501 71 52 3.0 4.0 0.00 0.00 0.00 41 1002.5
20260506033002 72 24 4.0 6.0 0.00 0.00 0.00 39 1002.1
20260506031547 72 24 4.0 8.0 0.00 0.00 0.00 38 1002.1
20260506030044 72 51 3.0 5.0 0.00 0.00 0.00 39 1002.1
20260506024543 71 38 3.0 8.0 0.00 0.00 0.00 39 1001.9
20260506023043 74 345 7.0 9.0 0.00 0.00 0.00 35 1001.8
20260506021544 76 355 5.0 8.0 0.00 0.00 0.00 31 1001.7
20260506020041 77 298 5.0 8.0 0.00 0.00 0.00 29 1001.6
20260506014553 78 297 6.0 11.0 0.00 0.00 0.00 29 1001.3
20260506013049 79 283 10.0 15.0 0.00 0.00 0.00 28 1001.3
20260506011547 79 287 9.0 13.0 0.00 0.00 0.00 28 1001.1
20260506010048 80 271 9.0 13.0 0.00 0.00 0.00 27 1001.1
20260506004543 81 266 9.0 13.0 0.00 0.00 0.00 26 1001.0
20260506003040 82 259 13.0 18.0 0.00 0.00 0.00 25 1001.1
20260506001557 81 271 12.0 17.0 0.00 0.00 0.00 26 1001.0
20260506000045 81 251 13.0 19.0 0.00 0.00 0.00 26 1001.1
20260505234547 81 244 12.0 25.0 0.00 0.00 0.00 26 1001.2
20260505233046 81 221 12.0 20.0 0.00 0.00 0.00 27 1001.4
20260505231547 80 234 19.0 26.0 0.00 0.00 0.00 27 1001.4
20260505230038 80 239 18.0 27.0 0.00 0.00 0.00 28 1001.3
20260505224541 80 237 19.0 26.0 0.00 0.00 0.00 29 1001.7
20260505223042 77 223 12.0 21.0 0.00 0.00 0.00 31 1002.0
20260505221537 77 252 15.0 21.0 0.00 0.00 0.00 31 1002.0
20260505220039 77 240 15.0 19.0 0.00 0.00 0.00 32 1002.3
20260505214557 76 246 16.0 20.0 0.00 0.00 0.00 32 1002.4
20260505213053 77 254 16.0 23.0 0.00 0.00 0.00 31 1002.6
20260505211541 77 252 21.0 29.0 0.00 0.00 0.00 30 1002.7
20260505210040 78 260 26.0 34.0 0.00 0.00 0.00 28 1002.9
20260505204535 78 245 19.0 28.0 0.00 0.00 0.00 28 1002.8
20260505203037 78 249 19.0 24.0 0.00 0.00 0.00 29 1002.8
20260505201544 78 261 21.0 28.0 0.00 0.00 0.00 27 1003.0
20260505200031 78 245 18.0 26.0 0.00 0.00 0.00 28 1002.9
20260505194537 78 237 19.0 25.0 0.00 0.00 0.00 28 1003.0
20260505193043 78 232 18.0 29.0 0.00 0.00 0.00 28 1003.0
20260505191534 78 242 18.0 25.0 0.00 0.00 0.00 29 1002.8
20260505190036 78 230 9.0 20.0 0.00 0.00 0.00 30 1002.9
20260505184527 78 238 15.0 20.0 0.00 0.00 0.00 29 1003.3
20260505183042 78 217 8.0 18.0 0.00 0.00 0.00 28 1003.3
20260505181524 77 223 13.0 19.0 0.00 0.00 0.00 28 1003.6
20260505180032 78 258 10.0 14.0 0.00 0.00 0.00 27 1003.6
20260505174540 78 275 8.0 13.0 0.00 0.00 0.00 28 1003.7
20260505173040 77 294 10.0 16.0 0.00 0.00 0.00 28 1003.5
20260505171540 77 322 11.0 17.0 0.00 0.00 0.00 28 1003.7
20260505170034 76 303 12.0 21.0 0.00 0.00 0.00 29 1003.6
20260505164531 76 315 13.0 18.0 0.00 0.00 0.00 29 1003.7
20260505163022 76 222 5.0 10.0 0.00 0.00 0.00 31 1003.7
20260505161517 74 221 4.0 7.0 0.00 0.00 0.00 32 1003.7
20260505153025 74 221 5.0 11.0 0.00 0.00 0.00 30 1003.6
20260505151514 74 219 7.0 10.0 0.00 0.00 0.00 30 1003.6
20260505124604 66 218 2.0 4.0 0.00 0.00 0.00 45 1002.1
20260505123110 66 218 4.0 5.0 0.00 0.00 0.00 45 1002.1
20260505121554 65 218 1.0 4.0 0.00 0.00 0.00 49 1001.8
20260505120055 67 218 2.0 4.0 0.00 0.00 0.00 45 1001.7
20260505114602 67 218 0.0 3.0 0.00 0.00 0.00 41 1001.6
20260505113155 69 218 2.0 4.0 0.00 0.00 0.00 38 1001.5
20260505111559 69 218 3.0 5.0 0.00 0.00 0.00 38 1001.5
20260505101553 65 218 4.0 7.0 0.00 0.00 0.00 46 1001.4
20260505100057 66 218 0.0 4.0 0.00 0.00 0.00 46 1001.4
20260505094547 68 218 4.0 5.0 0.00 0.00 0.00 40 1001.3
20260505093046 69 218 5.0 7.0 0.00 0.00 0.00 38 1001.1
20260505091546 70 218 3.0 4.0 0.00 0.00 0.00 38 1001.1
20260505090049 70 218 2.0 5.0 0.00 0.00 0.00 38 1001.4
20260505084541 69 218 2.0 4.0 0.00 0.00 0.00 38 1001.3
20260505083041 69 218 0.0 3.0 0.00 0.00 0.00 38 1001.3
20260505081545 69 218 4.0 5.0 0.00 0.00 0.00 37 1001.3
20260505080047 71 218 4.0 7.0 0.00 0.00 0.00 35 1001.3
20260505074534 72 218 5.0 9.0 0.00 0.00 0.00 33 1001.5
20260505073045 73 218 5.0 7.0 0.00 0.00 0.00 31 1001.6
20260505071533 73 218 5.0 7.0 0.00 0.00 0.00 32 1001.8
20260505070031 73 218 5.0 7.0 0.00 0.00 0.00 31 1001.5
20260505064526 73 218 3.0 8.0 0.00 0.00 0.00 31 1001.4
20260505063022 75 218 6.0 9.0 0.00 0.00 0.00 29 1001.6
20260505061521 75 218 7.0 10.0 0.00 0.00 0.00 28 1001.7
20260505060024 75 218 5.0 8.0 0.00 0.00 0.00 29 1002.0
20260505054523 76 218 5.0 7.0 0.00 0.00 0.00 29 1002.0
20260505053020 77 218 5.0 8.0 0.00 0.00 0.00 26 1002.1
20260505051520 78 218 4.0 7.0 0.00 0.00 0.00 24 1002.2
20260505041503 78 218 9.0 11.0 0.00 0.00 0.00 26 1002.5
20260505040003 77 218 8.0 9.0 0.00 0.00 0.00 26 1002.4